This is the latest recevied weather packets stored in our database for station/object N8WJW. If no packets are shown the sender has not sent any weather packets the latest 10 day(s).
| Time | Temp. | Humidity | Pressure | Rain* | Wind** | Luminosity | Snow |
|---|---|---|---|---|---|---|---|
| 1778085242 | 10.56° C | 81% | 1012.7 hPa | 0 mm | - | 240 W/m² | - |
| 1778084937 | 11.11° C | 80% | 1012.7 hPa | 0 mm | - | 850 W/m² | - |
| 1778084635 | 11.11° C | 80% | 1012.7 hPa | 0 mm | - | 514 W/m² | - |
| 1778084332 | 11.67° C | 79% | 1012.7 hPa | 0 mm | - | 813 W/m² | - |
| 1778084029 | 11.67° C | 79% | 1012.8 hPa | 0 mm | - | 902 W/m² | - |
| 1778083722 | 12.22° C | 80% | 1012.6 hPa | 0 mm | - | 798 W/m² | - |
| 1778083418 | 11.67° C | 78% | 1012.8 hPa | 0 mm | - | 883 W/m² | - |
| 1778083117 | 11.11° C | 79% | 1012.5 hPa | 0 mm | - | 892 W/m² | - |
| 1778082813 | 11.11° C | 83% | 1012.5 hPa | 0 mm | - | 445 W/m² | - |
| 1778081691 | 11.11° C | 85% | 1012 hPa | 0 mm | - | 355 W/m² | - |
| 1778081388 | 10.56° C | 87% | 1011.9 hPa | 0 mm | - | 227 W/m² | - |
| 1778081085 | 10.56° C | 88% | 1011.7 hPa | 0 mm | - | 234 W/m² | - |
| 1778080784 | 10° C | 88% | 1011.9 hPa | 0 mm | - | 238 W/m² | - |
| 1778080481 | 10° C | 88% | 1011.9 hPa | 0 mm | - | 218 W/m² | - |
| 1778080178 | 10° C | 88% | 1011.9 hPa | 0 mm | - | 158 W/m² | - |
| 1778079874 | 10.56° C | 89% | 1011.7 hPa | 0 mm | - | 234 W/m² | - |
| 1778079571 | 10° C | 92% | 1011.7 hPa | 0 mm | - | 256 W/m² | - |
| 1778079267 | 9.44° C | 95% | 1011.6 hPa | 0 mm | - | 259 W/m² | - |
| 1778078965 | 9.44° C | 99% | 1011.5 hPa | 0 mm | - | 241 W/m² | - |
| 1778078661 | 8.89° C | 99% | 1011.7 hPa | 0 mm | - | 239 W/m² | - |
| 1778078360 | 8.89° C | 99% | 1011.4 hPa | 0 mm | - | 250 W/m² | - |
| 1778078056 | 8.89° C | 99% | 1011.4 hPa | 0 mm | - | 228 W/m² | - |
| 1778077755 | 8.33° C | 99% | 1011.5 hPa | 0 mm | - | 231 W/m² | - |
| 1778077453 | 7.78° C | 99% | 1011.4 hPa | 0 mm | - | 211 W/m² | - |
| 1778077150 | 8.33° C | 99% | 1011.7 hPa | 0 mm | - | 191 W/m² | - |
* Rain latest hour (hover to see other rain measurements)
** Current wind speed in m/s (hover to see current wind gust speed)